Location: Unspecified
(0.0000°N, 0.0000°E)
Time: 09:26:48
(UTC+00:00)

TRS 6 - Pass Details

Date: 25 February 2019
Orbit: 3570 x 3718 km, 87.3° (Epoch: 20 March)

Event Time Altitude Azimuth Distance (km) Brightness Sun altitude
Rises 19:12:54 0° 179° (S) 7,709 ? -14.8°
Reaches altitude 10° 19:17:12 10° 179° (S) 6,690 ? -15.8°
Maximum altitude 19:36:15 86° 266° (W) 3,690 ? -20.5°
Drops below altitude 10° 19:55:38 10° 356° (N) 6,783 ? -25.3°
Sets 20:00:02 0° 357° (N) 7,819 ? -26.4°
